SCP
0 0 0 0 0 0 0 0 0 0 0 0 0 0 0 0 0 0 0 0 0 0
0 0 0 0 0 0 0 0 0 0 0 0 0 0 0 0 0 0 0 0 0 0
0 0 0 0 0 0 0 0 0 0 0 0 0 0 0 0 0 0 0 0 0 0
0 0 0 0 0 0 0 0 0 0 0 0 0 0 0 0 0 0 0 0 0 0
0 0 0 0 0 0 0 0 0 0 0 0 0 0 0 0 0 0 0 0 0 0
0 0 0 0 0 0 0 0 0 0 0 0 0 0 0 0 0 0 0 0 0 0
0 0 0 0 0 0 0 0 0 0 0 0 0 0 0 0 0 0 0 0 0 0
0 0 0 0 0 0 0 0 0 0 0 0 0 0 0 0 0 0 0 0 0 0
0 0 0 0 0 0 0 0 0 0 0 0 0 0 0 0 0 0 0 0 0 0
0 0 0 0 0 0 0 0 0 0 0 0 0 0 0 0 0 0 0 0 0 0
0 0 0 0 0 0 0 0 0 0 0 0 0 0 0 0 0 0 0 0 0 0
0 0 0 0 0 0 0 0 0 0 0 0 0 0 0 0 0 0 0 0 0 0
0 0 0 0 0 0 0 0 0 0 0 0 0 0 0 0 0 0 0 0 0 0
0 0 0 0 0 0 0 0 0 0 0 0 0 0 0 0 0 0 0 0 0 0
Wind_Speed_500mb
134 125 99 86 90 141 134 131 124 117 106 104 103 93 90 88 82 76 68 64 63 59
99 95 92 86 110 81 134 134 128 123 106 101 106 100 94 87 84 75 68 64 60 59
100 99 85 87 97 115 96 137 135 124 116 117 118 105 97 91 83 76 68 65 63 62
93 88 86 88 100 117 112 127 129 127 124 119 112 103 93 88 83 74 71 70 67 59
89 95 90 91 106 122 122 127 128 131 130 122 114 104 92 90 80 77 83 79 62 66
90 81 83 102 109 119 121 129 127 132 135 120 113 103 96 93 87 84 78 64 67 59
81 80 107 106 102 111 112 110 116 128 125 119 113 103 98 92 82 79 69 51 46 48
81 97 97 98 106 102 98 110 116 128 124 120 113 105 96 85 81 69 52 50 50 43
87 92 87 98 94 85 89 91 111 118 119 111 103 92 81 78 69 53 56 56 46 40
81 83 87 84 83 86 61 97 111 110 107 98 85 76 69 58 56 55 51 40 44 42
77 85 86 85 80 84 90 103 106 101 93 83 75 66 61 58 51 48 42 40 36 35
69 76 81 81 79 78 89 92 96 92 82 75 69 66 63 52 48 50 40 37 37 35
64 73 74 76 77 77 82 85 78 77 74 64 71 60 48 50 43 38 38 35 34 34
62 64 66 65 64 82 87 84 79 73 66 58 53 54 46 37 34 32 31 32 33 29
Wind_Direction_500mb
253 258 254 242 231 207 211 207 203 204 205 210 211 210 210 211 212 213 214 208 208 212
248 246 243 229 228 218 210 209 204 204 206 203 207 209 208 209 210 208 205 208 205 207
246 239 234 228 223 215 205 212 204 207 203 201 202 202 209 205 205 207 203 205 202 200
236 232 223 223 219 216 216 207 209 206 202 200 202 202 205 206 202 201 198 196 202 206
234 230 220 220 215 216 218 219 210 209 201 198 202 200 200 201 200 199 197 202 207 199
224 218 206 206 208 213 212 214 212 204 198 198 198 196 199 201 198 195 205 206 205 211
206 196 194 200 209 207 209 212 208 198 197 196 194 193 190 192 198 199 200 204 206 200
180 185 191 199 199 200 204 206 204 194 189 189 189 188 189 192 194 195 197 188 196 203
177 185 192 190 192 201 196 205 198 190 189 184 186 185 186 185 195 197 187 187 188 193
176 180 184 185 185 184 200 197 191 186 181 179 178 179 179 193 188 178 186 191 186 193
174 178 175 172 176 179 186 186 182 177 174 170 172 173 175 174 176 183 184 179 192 198
170 166 168 170 172 175 175 171 168 169 169 163 162 167 166 176 180 173 180 190 196 202
159 156 156 161 162 164 168 162 160 160 160 161 156 164 174 170 169 181 189 193 201 208
148 150 152 153 154 155 155 153 152 152 152 154 159 156 160 171 183 190 195 203 210 214
Wind_Speed_850mb
134 125 99 86 90 141 134 131 124 117 106 104 103 93 90 88 82 76 68 64 63 59
99 95 92 86 110 81 134 134 128 123 106 101 106 100 94 87 84 75 68 64 60 59
100 99 85 87 97 115 96 137 135 124 116 117 118 105 97 91 83 76 68 65 63 62
93 88 86 88 100 117 112 127 129 127 124 119 112 103 93 88 83 74 71 70 67 59
89 95 90 91 106 122 122 127 128 131 130 122 114 104 92 90 80 77 83 79 62 66
90 81 83 102 109 119 121 129 127 132 135 120 113 103 96 93 87 84 78 64 67 59
81 80 107 106 102 111 112 110 116 128 125 119 113 103 98 92 82 79 69 51 46 48
81 97 97 98 106 102 98 110 116 128 124 120 113 105 96 85 81 69 52 50 50 43
87 92 87 98 94 85 89 91 111 118 119 111 103 92 81 78 69 53 56 56 46 40
81 83 87 84 83 86 61 97 111 110 107 98 85 76 69 58 56 55 51 40 44 42
77 85 86 85 80 84 90 103 106 101 93 83 75 66 61 58 51 48 42 40 36 35
69 76 81 81 79 78 89 92 96 92 82 75 69 66 63 52 48 50 40 37 37 35
64 73 74 76 77 77 82 85 78 77 74 64 71 60 48 50 43 38 38 35 34 34
62 64 66 65 64 82 87 84 79 73 66 58 53 54 46 37 34 32 31 32 33 29
Wind_Direction_850mb
253 258 254 242 231 207 211 207 203 204 205 210 211 210 210 211 212 213 214 208 208 212
248 246 243 229 228 218 210 209 204 204 206 203 207 209 208 209 210 208 205 208 205 207
246 239 234 228 223 215 205 212 204 207 203 201 202 202 209 205 205 207 203 205 202 200
236 232 223 223 219 216 216 207 209 206 202 200 202 202 205 206 202 201 198 196 202 206
234 230 220 220 215 216 218 219 210 209 201 198 202 200 200 201 200 199 197 202 207 199
224 218 206 206 208 213 212 214 212 204 198 198 198 196 199 201 198 195 205 206 205 211
206 196 194 200 209 207 209 212 208 198 197 196 194 193 190 192 198 199 200 204 206 200
180 185 191 199 199 200 204 206 204 194 189 189 189 188 189 192 194 195 197 188 196 203
177 185 192 190 192 201 196 205 198 190 189 184 186 185 186 185 195 197 187 187 188 193
176 180 184 185 185 184 200 197 191 186 181 179 178 179 179 193 188 178 186 191 186 193
174 178 175 172 176 179 186 186 182 177 174 170 172 173 175 174 176 183 184 179 192 198
170 166 168 170 172 175 175 171 168 169 169 163 162 167 166 176 180 173 180 190 196 202
159 156 156 161 162 164 168 162 160 160 160 161 156 164 174 170 169 181 189 193 201 208
148 150 152 153 154 155 155 153 152 152 152 154 159 156 160 171 183 190 195 203 210 214